Change the Weather History Date:

Saturday, March 22, 2014

  Actual Average (KSZL) Record (KSZL)
Temperature  
Mean Temperature - -  
Max Temperature - 55 °F 73 °F (2009)
Min Temperature - 35 °F 14 °F (2002)
Moisture  
Dew Point -    
Average Humidity    
Maximum Humidity    
Minimum Humidity    
Precipitation  
Precipitation 0.00 in - - ()
Sea Level Pressure  
Sea Level Pressure 30.27 in    
Wind  
Wind Speed 13 mph (North)    
Max Wind Speed 17 mph    
Max Gust Speed 26 mph    
Visibility 10 miles    
Events      
Averages and records for this station are not official NWS values.
T = Trace of Precipitation, MM = Missing Value Source: NWS Daily Summary

Daily Weather History Graph

Daily Weather History Graph

Search for Another Location

Airport or City:

Trip Planner

Search our weather history database for the weather conditions in past years. The results will help you decide how hot, cold, wet, or windy it might be!

Date:

Astronomy

Mar. 22, 2014 Rise Set
Actual Time 7:15 AM CDT 7:29 PM CDT
Civil Twilight 6:48 AM CDT 7:55 PM CDT
Nautical Twilight 6:17 AM CDT 8:26 PM CDT
Astronomical Twilight 5:46 AM CDT 8:58 PM CDT
Moon 12:46 AM CDT (3/22) 11:02 AM CDT (3/22)
Length of Visible Light 13h 06m
Length of Day
12h 13m
Waning Gibbous, 65% of the Moon is Illuminated
Mar 22
Waning Gibbous
Mar 23
Last Quarter
Mar 30
New
Apr 7
First Quarter
Apr 15
Full

Hourly Weather History & Observations

Time (CDT) Temp. Dew Point Humidity Pressure Visibility Wind Dir Wind Speed Gust Speed Precip Events Conditions
12:15 AM - - N/A% 30.12 in 10.0 mi NNW 16.1 mph 19.6 mph N/A   Clear
12:35 AM - - N/A% 30.13 in 10.0 mi NNW 16.1 mph 21.9 mph N/A   Clear
12:55 AM - - N/A% 30.14 in 10.0 mi North 12.7 mph 19.6 mph N/A   Clear
1:15 AM - - N/A% 30.15 in 10.0 mi NNW 13.8 mph 17.3 mph N/A   Clear
1:35 AM - - N/A% 30.16 in 10.0 mi NNW 12.7 mph - N/A   Clear
1:55 AM - - N/A% 30.17 in 10.0 mi NNW 10.4 mph 17.3 mph N/A   Clear
2:15 AM - - N/A% 30.17 in 10.0 mi NNW 13.8 mph - N/A   Clear
2:35 AM - - N/A% 30.17 in 10.0 mi North 9.2 mph - N/A   Clear
2:55 AM - - N/A% 30.17 in 10.0 mi NNW 9.2 mph - N/A   Clear
3:15 AM - - N/A% 30.17 in 10.0 mi North 12.7 mph 16.1 mph N/A   Clear
3:35 AM - - N/A% 30.17 in 10.0 mi North 13.8 mph 18.4 mph N/A   Clear
3:55 AM - - N/A% 30.17 in 10.0 mi North 10.4 mph - N/A   Clear
4:15 AM - - N/A% 30.17 in 10.0 mi NNW 10.4 mph 17.3 mph N/A   Clear
4:35 AM - - N/A% 30.19 in 10.0 mi NNW 12.7 mph 18.4 mph N/A   Clear
4:55 AM - - N/A% 30.20 in 10.0 mi North 12.7 mph 18.4 mph N/A   Clear
5:15 AM - - N/A% 30.21 in 10.0 mi North 8.1 mph - N/A   Clear
5:55 AM - - N/A% 30.24 in 10.0 mi NNW 12.7 mph - N/A   Clear
6:15 AM - - N/A% 30.25 in 10.0 mi NNW 9.2 mph - N/A   Clear
6:35 AM - - N/A% 30.26 in 10.0 mi NNW 8.1 mph - N/A   Clear
6:55 AM - - N/A% 30.26 in 10.0 mi NNW 11.5 mph - N/A   Clear
7:15 AM - - N/A% 30.26 in 10.0 mi North 6.9 mph - N/A   Clear
7:35 AM - - N/A% 30.27 in 10.0 mi NNW 9.2 mph - N/A   Clear
7:55 AM - - N/A% 30.28 in 10.0 mi NNW 9.2 mph - N/A   Clear
8:15 AM - - N/A% 30.29 in 10.0 mi NNW 10.4 mph - N/A   Clear
8:35 AM - - N/A% 30.30 in 10.0 mi North 16.1 mph 21.9 mph N/A   Clear
8:55 AM - - N/A% 30.31 in 10.0 mi North 13.8 mph 17.3 mph N/A   Clear
9:15 AM - - N/A% 30.30 in 10.0 mi North 10.4 mph - N/A   Clear
9:35 AM - - N/A% 30.30 in 10.0 mi North 12.7 mph 16.1 mph N/A   Clear
9:55 AM - - N/A% 30.31 in 10.0 mi North 11.5 mph 16.1 mph N/A   Clear
10:15 AM - - N/A% 30.32 in 10.0 mi North 10.4 mph - N/A   Clear
10:35 AM - - N/A% 30.33 in 10.0 mi NNW 11.5 mph - N/A   Clear
10:55 AM - - N/A% 30.32 in 10.0 mi NNW 11.5 mph - N/A   Clear
11:15 AM - - N/A% 30.31 in 10.0 mi NNW 11.5 mph 16.1 mph N/A   Clear
11:35 AM - - N/A% 30.32 in 10.0 mi NNW 15.0 mph - N/A   Clear
11:55 AM - - N/A% 30.32 in 10.0 mi North 9.2 mph - N/A   Clear
12:15 PM - - N/A% 30.32 in 10.0 mi North 11.5 mph 16.1 mph N/A   Clear
12:35 PM - - N/A% 30.31 in 10.0 mi NNW 11.5 mph 18.4 mph N/A   Clear
12:55 PM - - N/A% 30.30 in 10.0 mi North 9.2 mph 16.1 mph N/A   Clear
1:15 PM - - N/A% 30.30 in 10.0 mi North 10.4 mph 18.4 mph N/A   Clear
1:35 PM - - N/A% 30.29 in 10.0 mi North 6.9 mph - N/A   Clear
2:15 PM - - N/A% 30.27 in 10.0 mi North 9.2 mph 18.4 mph N/A   Clear
2:35 PM - - N/A% 30.26 in 10.0 mi North 10.4 mph 18.4 mph N/A   Clear
2:55 PM - - N/A% 30.25 in 10.0 mi North 15.0 mph 20.7 mph N/A   Clear
3:15 PM - - N/A% 30.26 in 10.0 mi North 10.4 mph 18.4 mph N/A   Clear
3:35 PM - - N/A% 30.25 in 10.0 mi North 11.5 mph 20.7 mph N/A   Clear
3:55 PM - - N/A% 30.25 in 10.0 mi NNW 17.3 mph 26.5 mph N/A   Clear
4:15 PM - - N/A% 30.24 in 10.0 mi North 13.8 mph 21.9 mph N/A   Clear
4:35 PM - - N/A% 30.24 in 10.0 mi North 13.8 mph 18.4 mph N/A   Clear
4:55 PM - - N/A% 30.24 in 10.0 mi North 11.5 mph - N/A   Scattered Clouds
5:15 PM - - N/A% 30.25 in 10.0 mi North 15.0 mph 20.7 mph N/A   Scattered Clouds
5:35 PM - - N/A% 30.25 in 10.0 mi NNW 15.0 mph 21.9 mph N/A   Scattered Clouds
5:55 PM - - N/A% 30.25 in 10.0 mi NNW 16.1 mph 20.7 mph N/A   Scattered Clouds
6:15 PM - - N/A% 30.25 in 10.0 mi North 15.0 mph 20.7 mph N/A   Clear
6:35 PM - - N/A% 30.25 in 10.0 mi North 11.5 mph 24.2 mph N/A   Clear
6:55 PM - - N/A% 30.27 in 10.0 mi North 13.8 mph 20.7 mph N/A   Clear
7:15 PM - - N/A% 30.28 in 10.0 mi North 9.2 mph 16.1 mph N/A   Clear
7:35 PM - - N/A% 30.29 in 10.0 mi North 11.5 mph 18.4 mph N/A   Clear
7:55 PM - - N/A% 30.30 in 10.0 mi North 12.7 mph 16.1 mph N/A   Clear
8:15 PM - - N/A% 30.31 in 10.0 mi North 11.5 mph 16.1 mph N/A   Scattered Clouds
8:35 PM - - N/A% 30.32 in 10.0 mi North 10.4 mph - N/A   Mostly Cloudy
8:55 PM - - N/A% 30.33 in 10.0 mi North 13.8 mph 17.3 mph N/A   Overcast
9:15 PM - - N/A% 30.34 in 10.0 mi North 16.1 mph 21.9 mph N/A   Overcast
9:35 PM - - N/A% 30.35 in 10.0 mi North 13.8 mph 21.9 mph N/A   Mostly Cloudy
9:55 PM - - N/A% 30.36 in 10.0 mi North 12.7 mph 20.7 mph N/A   Scattered Clouds
10:15 PM - - N/A% 30.37 in 10.0 mi North 16.1 mph 25.3 mph N/A   Clear
10:35 PM - - N/A% 30.38 in 10.0 mi North 16.1 mph - N/A   Scattered Clouds
10:55 PM - - N/A% 30.39 in 10.0 mi North 13.8 mph 19.6 mph N/A   Scattered Clouds
11:15 PM - - N/A% 30.40 in 10.0 mi North 10.4 mph - N/A   Mostly Cloudy
11:55 PM - - N/A% 30.42 in 10.0 mi North 12.7 mph 18.4 mph N/A   Overcast